Dallesport, WA

11:15 PM PDT on August 25, 2016 (GMT -0700)
Columbia Gorge Regional-The Dalles

Weather History for KDLS - March, 2014

Change the Weather History Date:

Sunday, March 2, 2014

  Actual Average Record
Temperature  
Mean Temperature 30 °F -  
Max Temperature 32 °F 51 °F 71 °F (1968)
Min Temperature 28 °F 33 °F 20 °F (1960)
Degree Days  
Heating Degree Days 35    
Moisture  
Dew Point 24 °F    
Average Humidity 79    
Maximum Humidity 89    
Minimum Humidity 61    
Precipitation  
Precipitation 0.22 in - - ()
Sea Level Pressure  
Sea Level Pressure 29.92 in    
Wind  
Wind Speed 8 mph (East)    
Max Wind Speed 13 mph    
Max Gust Speed -    
Visibility 7 miles    
Events Rain , Snow    
Averages and records for this station are not official NWS values.
T = Trace of Precipitation, MM = Missing Value Source: NWS Daily Summary

Daily Weather History Graph

Daily Weather History Graph

Search for Another Location

Airport or City:

Trip Planner

Search our weather history database for the weather conditions in past years. The results will help you decide how hot, cold, wet, or windy it might be!

Date:

Astronomy

Mar. 02, 2014 Rise Set
Actual Time 6:41 AM PST 5:53 PM PST
Civil Twilight 6:11 AM PST 6:22 PM PST
Nautical Twilight 5:37 AM PST 6:57 PM PST
Astronomical Twilight 5:02 AM PST 7:31 PM PST
Moon 7:09 AM PST (3/2) 8:03 PM PST (3/2)
Length of Visible Light 12h 11m
Length of Day
11h 11m
Waxing Crescent, 3% of the Moon is Illuminated
Mar 2
Waxing Crescent
Mar 8
First Quarter
Mar 16
Full
Mar 23
Last Quarter
Mar 30
New

Hourly Weather History & Observations

Time (PST) Temp. Windchill Dew Point Humidity Pressure Visibility Wind Dir Wind Speed Gust Speed Precip Events Conditions
12:53 AM 30.0 °F 20.5 °F 18.0 °F 61% 29.98 in 10.0 mi ENE 11.5 mph - N/A   Overcast
1:53 AM 30.0 °F 20.0 °F 18.0 °F 61% 29.99 in 10.0 mi East 12.7 mph - N/A   Overcast
2:53 AM 30.0 °F 21.7 °F 18.0 °F 61% 29.97 in 10.0 mi ENE 9.2 mph - N/A   Overcast
3:53 AM 30.0 °F 23.2 °F 19.0 °F 64% 29.98 in 10.0 mi ENE 6.9 mph - N/A   Overcast
4:53 AM 30.0 °F 22.4 °F 19.0 °F 64% 29.98 in 10.0 mi East 8.1 mph - N/A   Overcast
5:53 AM 30.0 °F 21.1 °F 19.9 °F 66% 29.97 in 10.0 mi East 10.4 mph - N/A   Overcast
6:06 AM 30.0 °F 21.7 °F 19.9 °F 66% 29.95 in 10.0 mi East 9.2 mph - N/A   Overcast
6:53 AM 28.9 °F 19.2 °F 21.9 °F 75% 29.96 in 3.0 mi East 11.5 mph - 0.00 in Snow Light Snow
7:37 AM 28.9 °F 19.8 °F 21.9 °F 75% 29.95 in 1.8 mi East 10.4 mph - 0.00 in Snow Light Snow
7:53 AM 28.0 °F 20.8 °F 23.0 °F 81% 29.96 in 2.5 mi ENE 6.9 mph - 0.00 in Snow Light Snow
8:22 AM 28.0 °F 19.3 °F 23.0 °F 81% 29.94 in 1.5 mi East 9.2 mph - 0.01 in Snow Light Snow
8:32 AM 28.0 °F 20.0 °F 23.0 °F 81% 29.95 in 3.0 mi East 8.1 mph - 0.02 in Snow Light Snow
8:53 AM 28.9 °F 21.1 °F 23.0 °F 78% 29.95 in 2.0 mi East 8.1 mph - 0.03 in Snow Light Snow
9:11 AM 28.9 °F 20.4 °F 23.0 °F 78% 29.94 in 7.0 mi East 9.2 mph - 0.00 in Snow Light Snow
9:53 AM 30.0 °F 21.7 °F 24.1 °F 79% 29.94 in 5.0 mi East 9.2 mph - 0.02 in   Overcast
10:53 AM 30.0 °F 21.7 °F 24.1 °F 79% 29.94 in 7.0 mi ENE 9.2 mph - 0.01 in   Overcast
11:53 AM 30.0 °F 21.1 °F 24.1 °F 79% 29.93 in 7.0 mi ENE 10.4 mph - 0.01 in   Overcast
12:00 PM 30.0 °F 21.1 °F 24.1 °F 79% 29.92 in 5.0 mi ENE 10.4 mph - 0.01 in   Overcast
12:53 PM 30.9 °F 23.5 °F 24.1 °F 76% 29.90 in 10.0 mi ENE 8.1 mph - 0.03 in   Overcast
1:53 PM 30.9 °F 23.5 °F 26.1 °F 82% 29.90 in 5.0 mi ENE 8.1 mph - 0.03 in   Overcast
2:53 PM 30.9 °F 27.5 °F 25.0 °F 79% 29.90 in 5.0 mi East 3.5 mph - 0.02 in   Overcast
3:11 PM 30.9 °F - 25.0 °F 79% 29.89 in 7.0 mi Calm Calm - 0.01 in   Overcast
3:45 PM 30.9 °F - 26.1 °F 82% 29.88 in 10.0 mi Calm Calm - 0.01 in   Overcast
3:53 PM 30.9 °F - 27.0 °F 85% 29.89 in 7.0 mi Calm Calm - 0.01 in   Overcast
4:34 PM 30.9 °F - 27.0 °F 85% 29.87 in 6.0 mi Calm Calm - 0.01 in   Overcast
4:53 PM 30.9 °F 23.5 °F 26.1 °F 82% 29.89 in 10.0 mi ENE 8.1 mph - 0.01 in   Overcast
5:01 PM 32.0 °F 27.5 °F 26.1 °F 79% 29.88 in 6.0 mi ENE 4.6 mph - 0.01 in Rain Light Freezing Rain
5:17 PM 30.9 °F 23.5 °F 27.0 °F 85% 29.88 in 2.5 mi ENE 8.1 mph - 0.04 in Rain Light Freezing Rain
5:27 PM 30.9 °F 24.3 °F 27.0 °F 85% 29.87 in 5.0 mi East 6.9 mph - 0.05 in Rain Light Freezing Rain
5:43 PM 30.9 °F 25.2 °F 28.0 °F 89% 29.86 in 10.0 mi SSE 5.8 mph - 0.05 in   Mostly Cloudy
5:53 PM 30.9 °F 26.2 °F 28.0 °F 89% 29.87 in 10.0 mi South 4.6 mph - 0.05 in   Overcast
6:53 PM 30.9 °F 27.5 °F 27.0 °F 85% 29.88 in 10.0 mi Variable 3.5 mph - N/A   Overcast
7:53 PM 30.9 °F 24.3 °F 27.0 °F 85% 29.87 in 10.0 mi East 6.9 mph - N/A   Overcast
8:53 PM 30.9 °F 27.5 °F 28.0 °F 89% 29.88 in 10.0 mi WSW 3.5 mph - N/A   Overcast
9:53 PM 30.9 °F - 28.0 °F 89% 29.88 in 10.0 mi Calm Calm - N/A   Overcast
10:53 PM 30.0 °F 26.5 °F 27.0 °F 88% 29.90 in 10.0 mi SW 3.5 mph - N/A   Overcast
11:53 PM 30.0 °F - 27.0 °F 88% 29.91 in 9.0 mi Calm Calm - N/A   Scattered Clouds